Regional Weather Roundup
Issued by NWS

Home | Current Version | Previous Version | Text Only | Print | Product List | Glossary On
Versions: 1 2 3 4 5 6 7 8 9 10 11 12 13 14 15 16 17 18 19 20 21 22 23 24 25 26 27 28 29 30 31 32 33 34 35 36 37 38 39 40 41 42 43 44 45 46 47 48 49 50
000
ASUS45 KCYS 292310
RWRWY

WYOMING REGIONAL WEATHER ROUNDUP
NATIONAL WEATHER SERVICE CHEYENNE WY
500 PM MDT SUN MAR 29 2015

NOTE:  "FAIR" INDICATES FEW OR NO CLOUDS BELOW 12,000 FEET
WITH NO SIGNIFICANT WEATHER AND/OR OBSTRUCTIONS TO VISIBILITY.

WYZ001-300000-
YELLOWSTONE NATIONAL PARK

CITY           SKY/WX    TMP DP  RH WIND       PRES   REMARKS
LK YELLOWSTONE   N/A     44   9  23 VRB5      30.26F
W YELLOWSTONE  NOT AVBL

$$
WYZ002>013-054>058-071-098>099-300000-
NORTHERN WYOMING

CITY           SKY/WX    TMP DP  RH WIND       PRES   REMARKS
JACKSON        SUNNY     54  12  19 W7        30.23
CODY           FAIR      63  14  15 W15G28    30.08F
GREYBULL       FAIR      64  17  16 S9        30.07F
WORLAND        FAIR      62  20  19 NE8       30.08F
SHERIDAN       FAIR      60  24  25 CALM      30.07F
BUFFALO        FAIR      56  25  30 NW13      30.11F
GILLETTE       FAIR      60  22  23 N13       30.08S
HULETT         FAIR      59  27  29 W10       30.10F
NEWCASTLE      FAIR      61  19  20 NW8       30.09F

$$
WYZ014>020-022>026-101>103-300000-
CENTRAL WYOMING

CITY           SKY/WX    TMP DP  RH WIND       PRES   REMARKS
BIG PINEY      FAIR      59   8  13 N9G20     30.23F
PINEDALE       FAIR      52   9  17 NW14      30.26S
DUBOIS         FAIR      52   5  15 NW24G33   30.19F
LANDER         FAIR      63  15  15 CALM      30.10F
RIVERTON       FAIR      64  10  12 SW10G16   30.10F
CASPER         FAIR      62  11  13 NW15G23   30.09F
DOUGLAS        FAIR      62  10  13 W16G23    30.10F

$$
WYZ021-027>030-104>119-300000-
SOUTHERN WYOMING

CITY           SKY/WX    TMP DP  RH WIND       PRES   REMARKS
EVANSTON       FAIR      60  17  18 W16       30.26F
KEMMERER       FAIR      57  10  15 W16G23    30.25F
FORT BRIDGER   FAIR      64  10  12 W16G25    30.26F
ROCK SPRINGS   FAIR      59   7  12 W23G30    30.22F
DIXON          FAIR      64  14  14 W10G18    30.23F
RAWLINS        FAIR      61   8  12 W21G35    30.17F
SARATOGA       FAIR      59  12  15 SW17G29   30.21F
LARAMIE        FAIR      60   7  12 W17G23    30.16F
CHEYENNE       FAIR      61  18  18 SW9       30.16S
TORRINGTON     FAIR      63  20  19 VRB3      30.09F
PINE BLUFFS    FAIR      61  19  20 SE6       30.15F

$$


USA.gov is the U.S. government's official web portal to all federal, state and local government web resources and services.